Miscellaneous Local Product
Issued by NWS Hastings, NE

Home | Current Version | Previous Version | Text Only | Print | Product List | Glossary Off
Versions: 1 2 3 4 5 6 7 8 9 10 11 12 13 14 15 16 17 18 19 20 21 22 23 24 25 26 27 28 29 30 31 32 33 34 35 36 37 38 39 40 41 42 43 44 45 46 47 48 49 50

000
AXUS43 KGID 270502
MISGRI

GID CWA HOURLY WEATHER ROUNDUP
NATIONAL WEATHER SERVICE HASTINGS NE
1200 AM CDT MON JUL 27 2015

NOTE: "FAIR" INDICATES FEW OR NO CLOUDS BELOW 12,000 FEET WITH NO
SIGNIFICANT WEATHER AND/OR OBSTRUCTIONS TO VISIBILITY.

...SOUTH CENTRAL NEBRASKA...

CITY           SKY/WX    TMP DP  RH WIND       PRES   REMARKS
GRAND ISLAND   CLOUDY    79  77  94 SE5       29.92R
HASTINGS       CLOUDY    81  73  76 SE9       29.92R
KEARNEY        CLOUDY    77  63  61 W15       29.97R
ORD            CLOUDY    76  65  68 N10       29.93R
YORK           CLOUDY    77  77 100 E5        29.89F
AURORA         CLOUDY    78  78 100 SE5       29.91R
LEXINGTON      TSTM      70  67  90 SW6       30.00R
HOLDREGE       CLOUDY    73  63  72 W10G18    30.02R
HEBRON         CLOUDY    78  73  82 SE3       29.89S

...NEBRASKA PANHANDLE...

CITY           SKY/WX    TMP DP  RH WIND       PRES   REMARKS
CHADRON        CLEAR     75  55  49 S22G31    29.88S
ALLIANCE       PTCLDY    64  57  78 S8        29.96S
SCOTTSBLUFF    CLEAR     67  59  75 SE12      29.96R
SIDNEY         CLOUDY    63  61  93 SE8       30.01S

...WESTERN AND NORTH CENTRAL NEBRASKA...

CITY           SKY/WX    TMP DP  RH WIND       PRES   REMARKS
VALENTINE      CLOUDY    74  62  66 S16       29.90R
AINSWORTH      CLOUDY    75  65  72 S14       29.91F
ONEILL         CLOUDY    77  74  91 SE9       29.88F
BROKEN BOW     CLOUDY    71  66  84 SE3       29.93R
IMPERIAL       CLOUDY    68  62  81 S10       29.99R
NORTH PLATTE   CLOUDY    73  58  59 SE6       29.89F
MCCOOK         CLOUDY    71  62  73 SE18G31   29.91R

...EASTERN NEBRASKA...

CITY           SKY/WX    TMP DP  RH WIND       PRES   REMARKS
NORFOLK        CLOUDY    79  76  90 CALM      29.90R
SO SIOUX CITY  CLOUDY    78  73  84 E8        29.87F
TEKAMAH        PTCLDY    78  76  93 CALM      29.87F
COLUMBUS       CLOUDY    79  73  83 CALM      29.88S
ALBION         CLOUDY    76  73  91 CALM      29.91R FOG
OMAHA EPPLEY   CLOUDY    81  77  88 SE6       29.87F
OFFUTT AFB     PTCLDY    78  76  92 E5        29.86F
MILLARD        PTCLDY    81  77  86 SE3       29.88F
LINCOLN        MOCLDY    83  79  88 E5        29.88F HX  94
BEATRICE       CLOUDY    80  75  85 SE3       29.88F HAZE
FALLS CITY     PTCLDY    79  77  94 SE3       29.88S

...NORTHERN KANSAS...

CITY           SKY/WX    TMP DP  RH WIND       PRES   REMARKS
GOODLAND       CLOUDY    66  62  87 SE10      30.00S
HILL CITY      LGT RAIN  71  66  84 NW13      30.02R
NORTON         LGT RAIN  68  64  88 E7        30.01F
SMITH CENTER   TSTM      73  64  73 W17G23    29.99R
HAYS           CLOUDY    72  61  68 NW30G41   30.04R
RUSSELL        CLOUDY    80  64  58 NW20G31   29.97R
CONCORDIA      CLOUDY    81  72  74 S12       29.91R
SALINA         MOCLDY    80  72  76 S5        29.91R
TOPEKA         CLEAR     80  77  90 CALM      29.89R



USA.gov is the U.S. government's official web portal to all federal, state and local government web resources and services.